Connexion

Connexion à votre compte

Identifiant
Mot de passe
Maintenir la connexion active sur ce site

METAR/TAF de Chambéry

[source: ADDS]
METAR / TAF
LFLB 011330Z AUTO 20012KT 8000 -RA FEW008 BKN024 BKN034 12/11 Q1022 NOSIG =
TAF LFLB 010800Z 0109/0209 19007KT 9999 OVC060 TEMPO 0109/0114 4000 RA TEMPO 0114/0120 -RA PROB30 TEMPO 0203/0206 1500 BCFG

SR / SS: 05:34 / 17:17 UTC (Lever/Coucher du soleil le 2022-10-01)

 

Webcam de l'Aéroclub - Parking Lima et SW (réactualisation : 5min)

Cliquer ici pour une animation sur les 3 dernières heures / Cliquer sur l'image pour l'agrandir dans une nouvelle fenêtre

 

Webcam de l'Aéroclub - Manche à air et WA (réactualisation : 5min)

Cliquer ici pour une animation sur les 3 dernières heures / Cliquer sur l'image pour l'agrandir dans une nouvelle fenêtre

 

 

Webcams Tierces :

 

Webcam Belvédère du Revard - 360-SW-WA-EY-NL / 4955ft

Webcam Décollage parapente Pragondran - WA-NL / 2970ft

Webcam Bourget du Lac - 360-WA-EY

Webcam port d'Aix les Bains - 360

Webcam Belvédère d'Ontex- Vers l'est - EY / 1985ft

Webcam Belvédère de la Chambotte - Vers l'Ouest - WA-NL / 2200ft

Webcam port de Chatillon - 360-NL

Webcam La Motte Servolex - Vers l'Est - Croix du Nivolet / 1065ft

Webcam Aérodrome de Challes - LFLE - Vers l'Est - Mont St Michel

JSN Boot template designed by JoomlaShine.com